Regional Weather Roundup
Issued by NWS

Home | Current Version | Previous Version | Graphics & Text | Print | Product List | Glossary On
Versions: 1 2 3 4 5 6 7 8 9 10 11 12 13 14 15 16 17 18 19 20 21 22 23 24 25 26 27 28 29 30 31 32 33 34 35 36 37 38 39 40 41 42 43 44 45 46 47 48 49 50
000
ASUS45 KCYS 250310
RWRWY

WYOMING REGIONAL WEATHER ROUNDUP
NATIONAL WEATHER SERVICE CHEYENNE WY
900 PM MDT SUN MAY 24 2015

NOTE:  "FAIR" INDICATES FEW OR NO CLOUDS BELOW 12,000 FEET
WITH NO SIGNIFICANT WEATHER AND/OR OBSTRUCTIONS TO VISIBILITY.

WYZ001-250400-
YELLOWSTONE NATIONAL PARK

CITY           SKY/WX    TMP DP  RH WIND       PRES   REMARKS
LK YELLOWSTONE   N/A     40  37  89 CALM      30.03R
W YELLOWSTONE  NOT AVBL

$$
WYZ002>013-054>058-071-098>099-250400-
NORTHERN WYOMING

CITY           SKY/WX    TMP DP  RH WIND       PRES   REMARKS
JACKSON        FAIR      46  39  76 N8        29.93R
CODY           MOCLDY    48  43  81 NW5       29.97F
GREYBULL       CLOUDY    55  45  68 NW14      29.89S
WORLAND        CLOUDY    52  47  83 NW8       29.90S
SHERIDAN       LGT RAIN  51  49  92 N6        29.95R
BUFFALO        LGT RAIN  47  45  93 NW6       29.95S
GILLETTE       CLOUDY    50  48  93 N8        29.89F
HULETT         CLOUDY    50  50 100 NE9       29.91F
NEWCASTLE      MOCLDY    52  45  76 CALM      29.86R

$$
WYZ014>020-022>026-101>103-250400-
CENTRAL WYOMING

CITY           SKY/WX    TMP DP  RH WIND       PRES   REMARKS
BIG PINEY      MOCLDY    42  39  89 W5        29.97S
PINEDALE       CLOUDY    43  37  81 CALM      29.98R
DUBOIS         FAIR      43  36  75 SE10      29.96F
LANDER         CLOUDY    48  43  82 E6        29.94R
RIVERTON       CLOUDY    48  43  82 NE9       29.95R
CASPER         CLOUDY    48  45  89 N9        29.91R
DOUGLAS        FAIR      47  44  90 NW8       29.88F

$$
WYZ021-027>030-104>119-250400-
SOUTHERN WYOMING

CITY           SKY/WX    TMP DP  RH WIND       PRES   REMARKS
EVANSTON       CLOUDY    44  40  85 SW13      29.96S
KEMMERER       CLOUDY    41  41 100 S5        29.98R
FORT BRIDGER   DRIZZLE   45  45 100 SE6       30.00S
ROCK SPRINGS   LGT RAIN  44  39  82 NE7       29.97R
DIXON          CLOUDY    44  40  86 CALM      29.97S
RAWLINS        MOCLDY    45  39  79 N13       29.93R
SARATOGA       MOCLDY    43  37  81 SW8       29.94F
LARAMIE        FAIR      41  36  82 W7        29.92R
CHEYENNE       FAIR      47  39  74 NW3       29.88S
TORRINGTON     CLOUDY    53  49  86 N5        29.82R
PINE BLUFFS    CLOUDY    46  43  87 NW7       29.85F

$$



USA.gov is the U.S. government's official web portal to all federal, state and local government web resources and services.